Time,TemperatureF,DewpointF,PressureIn,WindDirection,WindDirectionDegrees,WindSpeedMPH,WindSpeedGustMPH,Humidity,HourlyPrecipIn,Conditions,Clouds,dailyrainin,SoftwareType,DateUTC
2013-10-13 00:01:00,60.5,57.9,30.07,West,277,0.0,0.0,91,0.00,CLR,,0.00,WeatherDisplay:10.37,2013-10-13 04:01:00,
2013-10-13 00:02:00,60.5,57.9,30.07,West,278,0.0,0.0,91,0.00,CLR,,0.00,WeatherDisplay:10.37,2013-10-13 04:02:00,
2013-10-13 00:07:00,60.4,57.8,30.06,West,277,0.0,0.0,91,0.00,CLR,,0.00,WeatherDisplay:10.37,2013-10-13 04:07:00,
2013-10-13 00:12:00,60.4,57.8,30.06,West,278,0.0,0.0,91,0.00,CLR,,0.00,WeatherDisplay:10.37,2013-10-13 04:12:00,
2013-10-13 00:17:00,60.2,57.3,30.06,West,277,0.0,0.0,90,0.00,CLR,,0.00,WeatherDisplay:10.37,2013-10-13 04:17:00,
2013-10-13 00:22:00,60.1,57.2,30.06,West,277,0.0,0.0,90,0.00,CLR,,0.00,WeatherDisplay:10.37,2013-10-13 04:22:00,
2013-10-13 00:27:00,60.1,57.5,30.05,West,278,0.0,0.0,91,0.00,CLR,,0.00,WeatherDisplay:10.37,2013-10-13 04:27:00,
2013-10-13 00:33:00,60.0,57.4,30.05,West,278,0.0,0.0,91,0.00,CLR,,0.00,WeatherDisplay:10.37,2013-10-13 04:33:00,
2013-10-13 00:38:00,60.0,57.4,30.06,West,278,0.0,0.0,91,0.00,CLR,,0.00,WeatherDisplay:10.37,2013-10-13 04:38:00,
2013-10-13 00:43:00,59.9,57.3,30.06,West,277,0.0,0.0,91,0.00,CLR,,0.00,WeatherDisplay:10.37,2013-10-13 04:43:00,
2013-10-13 00:48:00,59.8,57.2,30.06,West,278,0.0,0.0,91,0.00,CLR,,0.00,WeatherDisplay:10.37,2013-10-13 04:48:00,
2013-10-13 00:53:00,59.7,57.1,30.06,West,278,0.0,0.0,91,0.00,CLR,,0.00,WeatherDisplay:10.37,2013-10-13 04:53:00,
2013-10-13 00:58:00,59.5,56.9,30.06,West,278,0.0,0.0,91,0.00,CLR,,0.00,WeatherDisplay:10.37,2013-10-13 04:58:00,
2013-10-13 01:03:00,59.4,56.8,30.06,West,278,0.0,0.0,91,0.00,CLR,,0.00,WeatherDisplay:10.37,2013-10-13 05:03:00,
2013-10-13 01:08:00,59.4,57.1,30.06,West,277,0.0,0.0,92,0.00,CLR,,0.00,WeatherDisplay:10.37,2013-10-13 05:08:00,
2013-10-13 01:13:00,59.4,57.1,30.06,West,278,1.0,0.0,92,0.00,CLR,,0.00,WeatherDisplay:10.37,2013-10-13 05:13:00,
2013-10-13 01:18:00,59.3,57.0,30.06,West,277,0.0,0.0,92,0.00,CLR,,0.00,WeatherDisplay:10.37,2013-10-13 05:18:00,
2013-10-13 01:23:00,59.4,57.1,30.06,West,278,0.0,0.0,92,0.00,CLR,,0.00,WeatherDisplay:10.37,2013-10-13 05:23:00,
2013-10-13 01:28:00,59.3,57.0,30.06,West,278,0.0,0.0,92,0.00,CLR,,0.00,WeatherDisplay:10.37,2013-10-13 05:28:00,
2013-10-13 01:33:00,59.4,57.1,30.06,West,277,0.0,0.0,92,0.00,CLR,,0.00,WeatherDisplay:10.37,2013-10-13 05:33:00,
2013-10-13 01:38:00,59.3,57.0,30.06,West,277,0.0,0.0,92,0.00,CLR,,0.00,WeatherDisplay:10.37,2013-10-13 05:38:00,
2013-10-13 01:43:00,59.3,57.0,30.06,West,277,0.0,0.0,92,0.00,CLR,,0.00,WeatherDisplay:10.37,2013-10-13 05:43:00,
2013-10-13 01:48:00,59.3,57.0,30.06,West,278,0.0,0.0,92,0.00,CLR,,0.00,WeatherDisplay:10.37,2013-10-13 05:48:00,
2013-10-13 01:53:00,59.2,56.6,30.07,West,277,0.0,0.0,91,0.00,CLR,,0.00,WeatherDisplay:10.37,2013-10-13 05:53:00,
2013-10-13 01:58:00,59.2,56.6,30.07,West,278,0.0,0.0,91,0.00,CLR,,0.00,WeatherDisplay:10.37,2013-10-13 05:58:00,
2013-10-13 02:03:00,59.1,56.5,30.07,West,277,0.0,0.0,91,0.00,CLR,,0.00,WeatherDisplay:10.37,2013-10-13 06:03:00,
2013-10-13 02:08:00,59.1,56.8,30.07,West,277,0.0,0.0,92,0.00,CLR,,0.00,WeatherDisplay:10.37,2013-10-13 06:08:00,
2013-10-13 02:13:00,59.0,56.7,30.07,West,277,0.0,0.0,92,0.00,CLR,,0.00,WeatherDisplay:10.37,2013-10-13 06:13:00,
2013-10-13 02:18:00,59.0,56.7,30.07,West,278,0.0,0.0,92,0.00,CLR,,0.00,WeatherDisplay:10.37,2013-10-13 06:18:00,
2013-10-13 02:23:00,59.0,56.7,30.07,West,277,0.0,0.0,92,0.00,CLR,,0.00,WeatherDisplay:10.37,2013-10-13 06:23:00,
2013-10-13 02:28:00,58.9,56.6,30.07,West,277,0.0,0.0,92,0.00,CLR,,0.00,WeatherDisplay:10.37,2013-10-13 06:28:00,
2013-10-13 02:33:00,58.9,56.6,30.07,West,277,0.0,0.0,92,0.00,CLR,,0.00,WeatherDisplay:10.37,2013-10-13 06:33:00,
2013-10-13 02:38:00,58.8,56.5,30.07,West,277,0.0,0.0,92,0.00,CLR,,0.00,WeatherDisplay:10.37,2013-10-13 06:38:00,
2013-10-13 02:43:00,58.8,56.5,30.07,West,277,0.0,0.0,92,0.00,CLR,,0.00,WeatherDisplay:10.37,2013-10-13 06:43:00,
2013-10-13 02:48:00,58.8,56.5,30.07,West,278,0.0,0.0,92,0.00,CLR,,0.00,WeatherDisplay:10.37,2013-10-13 06:48:00,
2013-10-13 02:53:00,58.7,56.4,30.07,West,278,0.0,0.0,92,0.00,CLR,,0.00,WeatherDisplay:10.37,2013-10-13 06:53:00,
2013-10-13 02:58:00,58.7,56.4,30.07,West,278,0.0,0.0,92,0.00,CLR,,0.00,WeatherDisplay:10.37,2013-10-13 06:58:00,
2013-10-13 03:03:00,58.7,56.4,30.07,West,277,0.0,0.0,92,0.00,CLR,,0.00,WeatherDisplay:10.37,2013-10-13 07:03:00,
2013-10-13 03:08:00,58.7,56.4,30.07,West,277,0.0,0.0,92,0.00,CLR,,0.00,WeatherDisplay:10.37,2013-10-13 07:08:00,
2013-10-13 03:13:00,58.7,56.4,30.07,West,277,0.0,0.0,92,0.00,CLR,,0.00,WeatherDisplay:10.37,2013-10-13 07:13:00,
2013-10-13 03:18:00,58.7,56.4,30.07,West,277,0.0,0.0,92,0.00,CLR,,0.00,WeatherDisplay:10.37,2013-10-13 07:18:00,
2013-10-13 03:23:00,58.6,56.3,30.07,West,277,0.0,0.0,92,0.00,CLR,,0.00,WeatherDisplay:10.37,2013-10-13 07:23:00,
2013-10-13 03:28:00,58.6,56.3,30.07,West,277,0.0,0.0,92,0.00,CLR,,0.00,WeatherDisplay:10.37,2013-10-13 07:28:00,
2013-10-13 03:33:00,58.6,56.3,30.07,West,278,0.0,0.0,92,0.00,CLR,,0.00,WeatherDisplay:10.37,2013-10-13 07:33:00,
2013-10-13 03:38:00,58.5,56.2,30.07,West,278,0.0,0.0,92,0.00,CLR,,0.00,WeatherDisplay:10.37,2013-10-13 07:38:00,
2013-10-13 03:43:00,58.5,56.2,30.07,West,277,0.0,0.0,92,0.00,CLR,,0.00,WeatherDisplay:10.37,2013-10-13 07:43:00,
2013-10-13 03:48:00,58.4,56.1,30.07,West,278,0.0,0.0,92,0.00,CLR,,0.00,WeatherDisplay:10.37,2013-10-13 07:48:00,
2013-10-13 03:53:00,58.4,56.1,30.07,West,278,0.0,0.0,92,0.00,CLR,,0.00,WeatherDisplay:10.37,2013-10-13 07:53:00,
2013-10-13 03:58:00,58.3,56.3,30.07,West,278,0.0,0.0,93,0.00,CLR,,0.00,WeatherDisplay:10.37,2013-10-13 07:58:00,
2013-10-13 04:03:00,58.2,56.2,30.07,West,277,0.0,0.0,93,0.00,CLR,,0.00,WeatherDisplay:10.37,2013-10-13 08:03:00,
2013-10-13 04:08:00,58.1,56.1,30.07,West,278,0.0,0.0,93,0.00,CLR,,0.00,WeatherDisplay:10.37,2013-10-13 08:08:00,
2013-10-13 04:13:00,58.1,56.1,30.07,West,278,0.0,0.0,93,0.00,CLR,,0.00,WeatherDisplay:10.37,2013-10-13 08:13:00,
2013-10-13 04:18:00,58.0,56.0,30.08,West,277,0.0,0.0,93,0.00,CLR,,0.00,WeatherDisplay:10.37,2013-10-13 08:18:00,
2013-10-13 04:23:00,58.0,56.0,30.08,West,278,0.0,0.0,93,0.00,CLR,,0.00,WeatherDisplay:10.37,2013-10-13 08:23:00,
2013-10-13 04:28:00,57.9,55.9,30.08,West,277,0.0,0.0,93,0.00,CLR,,0.00,WeatherDisplay:10.37,2013-10-13 08:28:00,
2013-10-13 04:33:00,57.9,55.9,30.08,West,277,0.0,0.0,93,0.00,CLR,,0.00,WeatherDisplay:10.37,2013-10-13 08:33:00,
2013-10-13 04:38:00,57.8,55.8,30.08,West,277,0.0,0.0,93,0.00,CLR,,0.00,WeatherDisplay:10.37,2013-10-13 08:38:00,
2013-10-13 04:43:00,57.8,55.8,30.08,West,277,0.0,0.0,93,0.00,CLR,,0.00,WeatherDisplay:10.37,2013-10-13 08:43:00,
2013-10-13 04:48:00,57.8,55.8,30.08,West,278,0.0,0.0,93,0.00,CLR,,0.00,WeatherDisplay:10.37,2013-10-13 08:48:00,
2013-10-13 04:53:00,57.8,55.8,30.09,West,278,0.0,0.0,93,0.00,CLR,,0.00,WeatherDisplay:10.37,2013-10-13 08:53:00,
2013-10-13 04:58:00,57.7,55.7,30.09,West,278,0.0,0.0,93,0.00,CLR,,0.00,WeatherDisplay:10.37,2013-10-13 08:58:00,
2013-10-13 05:03:00,57.7,55.7,30.09,West,278,0.0,0.0,93,0.00,CLR,,0.00,WeatherDisplay:10.37,2013-10-13 09:03:00,
2013-10-13 05:08:00,57.7,55.7,30.09,West,277,0.0,0.0,93,0.00,CLR,,0.00,WeatherDisplay:10.37,2013-10-13 09:08:00,
2013-10-13 05:13:00,57.6,55.6,30.09,West,277,0.0,0.0,93,0.00,CLR,,0.00,WeatherDisplay:10.37,2013-10-13 09:13:00,
2013-10-13 05:18:00,57.6,55.9,30.09,West,277,0.0,0.0,94,0.00,CLR,,0.00,WeatherDisplay:10.37,2013-10-13 09:18:00,
2013-10-13 05:23:00,57.6,55.9,30.09,West,278,0.0,0.0,94,0.00,CLR,,0.00,WeatherDisplay:10.37,2013-10-13 09:23:00,
2013-10-13 05:28:00,57.5,55.8,30.09,West,278,0.0,0.0,94,0.00,CLR,,0.00,WeatherDisplay:10.37,2013-10-13 09:28:00,
2013-10-13 05:33:00,57.5,55.8,30.09,West,277,0.0,0.0,94,0.00,CLR,,0.00,WeatherDisplay:10.37,2013-10-13 09:33:00,
2013-10-13 05:38:00,57.5,55.8,30.09,West,278,0.0,0.0,94,0.00,CLR,,0.00,WeatherDisplay:10.37,2013-10-13 09:38:00,
2013-10-13 05:43:00,57.4,55.7,30.09,West,278,0.0,0.0,94,0.00,CLR,,0.00,WeatherDisplay:10.37,2013-10-13 09:43:00,
2013-10-13 05:48:00,57.4,55.7,30.10,West,277,0.0,0.0,94,0.00,CLR,,0.00,WeatherDisplay:10.37,2013-10-13 09:48:00,
2013-10-13 05:53:00,57.4,55.7,30.10,West,278,0.0,0.0,94,0.00,CLR,,0.00,WeatherDisplay:10.37,2013-10-13 09:53:00,
2013-10-13 05:58:00,57.4,55.7,30.10,West,278,0.0,0.0,94,0.00,CLR,,0.00,WeatherDisplay:10.37,2013-10-13 09:58:00,
2013-10-13 06:03:00,57.3,55.6,30.10,West,278,0.0,0.0,94,0.00,CLR,,0.00,WeatherDisplay:10.37,2013-10-13 10:03:00,
2013-10-13 06:08:00,57.3,55.6,30.11,West,277,0.0,0.0,94,0.00,CLR,,0.00,WeatherDisplay:10.37,2013-10-13 10:08:00,
2013-10-13 06:13:00,57.3,55.6,30.11,West,278,0.0,0.0,94,0.00,CLR,,0.00,WeatherDisplay:10.37,2013-10-13 10:13:00,
2013-10-13 06:18:00,57.4,55.7,30.11,West,278,0.0,0.0,94,0.00,CLR,,0.00,WeatherDisplay:10.37,2013-10-13 10:18:00,
2013-10-13 06:23:00,57.4,55.7,30.11,West,278,0.0,0.0,94,0.00,CLR,,0.00,WeatherDisplay:10.37,2013-10-13 10:23:00,
2013-10-13 06:28:00,57.5,55.8,30.11,West,278,0.0,0.0,94,0.00,CLR,,0.00,WeatherDisplay:10.37,2013-10-13 10:28:00,
2013-10-13 06:33:00,57.5,55.8,30.11,West,277,0.0,0.0,94,0.00,CLR,,0.00,WeatherDisplay:10.37,2013-10-13 10:33:00,
2013-10-13 06:38:00,57.5,55.8,30.10,West,278,0.0,0.0,94,0.00,CLR,,0.00,WeatherDisplay:10.37,2013-10-13 10:38:00,
2013-10-13 06:43:00,57.5,55.8,30.11,West,278,0.0,0.0,94,0.00,CLR,,0.00,WeatherDisplay:10.37,2013-10-13 10:43:00,
2013-10-13 06:48:00,57.4,55.7,30.10,West,278,0.0,0.0,94,0.00,CLR,,0.00,WeatherDisplay:10.37,2013-10-13 10:48:00,
2013-10-13 06:53:00,57.4,55.7,30.11,West,277,0.0,0.0,94,0.00,CLR,,0.00,WeatherDisplay:10.37,2013-10-13 10:53:00,
2013-10-13 06:58:00,57.4,55.7,30.10,West,278,0.0,0.0,94,0.00,CLR,,0.00,WeatherDisplay:10.37,2013-10-13 10:58:00,
2013-10-13 07:03:00,57.3,55.6,30.10,West,277,0.0,0.0,94,0.00,CLR,,0.00,WeatherDisplay:10.37,2013-10-13 11:03:00,
2013-10-13 07:08:00,57.3,55.6,30.10,West,278,0.0,0.0,94,0.00,CLR,,0.00,WeatherDisplay:10.37,2013-10-13 11:08:00,
2013-10-13 07:13:00,57.2,55.5,30.10,West,277,0.0,0.0,94,0.00,FEW,,0.00,WeatherDisplay:10.37,2013-10-13 11:13:00,
2013-10-13 07:18:00,57.2,55.5,30.10,West,277,0.0,0.0,94,0.00,FEW,,0.00,WeatherDisplay:10.37,2013-10-13 11:18:00,
2013-10-13 07:23:00,57.2,55.5,30.10,West,277,0.0,0.0,94,0.00,FEW,,0.00,WeatherDisplay:10.37,2013-10-13 11:23:00,
2013-10-13 07:28:00,57.2,55.5,30.11,West,277,0.0,0.0,94,0.00,FEW,,0.00,WeatherDisplay:10.37,2013-10-13 11:28:00,
2013-10-13 07:33:00,57.1,55.4,30.11,West,277,0.0,0.0,94,0.00,FEW,,0.00,WeatherDisplay:10.37,2013-10-13 11:33:00,
2013-10-13 07:38:00,57.1,55.4,30.11,West,277,0.0,0.0,94,0.00,FEW,,0.00,WeatherDisplay:10.37,2013-10-13 11:38:00,
2013-10-13 07:43:00,57.1,55.4,30.11,West,278,0.0,0.0,94,0.00,FEW,,0.00,WeatherDisplay:10.37,2013-10-13 11:43:00,
2013-10-13 07:48:00,57.0,55.3,30.11,West,277,0.0,0.0,94,0.00,FEW,,0.00,WeatherDisplay:10.37,2013-10-13 11:48:00,
2013-10-13 07:53:00,57.0,55.3,30.11,West,278,0.0,0.0,94,0.00,FEW,,0.00,WeatherDisplay:10.37,2013-10-13 11:53:00,
2013-10-13 07:58:00,57.0,55.3,30.11,West,277,0.0,0.0,94,0.00,FEW,,0.00,WeatherDisplay:10.37,2013-10-13 11:58:00,
2013-10-13 08:03:00,57.0,55.3,30.12,West,278,0.0,0.0,94,0.00,FEW,,0.00,WeatherDisplay:10.37,2013-10-13 12:03:00,
2013-10-13 08:08:00,57.0,55.3,30.12,West,277,0.0,0.0,94,0.00,FEW,,0.00,WeatherDisplay:10.37,2013-10-13 12:08:00,
2013-10-13 08:13:00,57.1,55.4,30.12,West,277,0.0,0.0,94,0.00,FEW,,0.00,WeatherDisplay:10.37,2013-10-13 12:13:00,
2013-10-13 08:18:00,57.1,55.4,30.12,West,277,0.0,0.0,94,0.00,FEW,,0.00,WeatherDisplay:10.37,2013-10-13 12:18:00,
2013-10-13 08:23:00,57.1,55.4,30.12,West,278,0.0,0.0,94,0.00,FEW,,0.00,WeatherDisplay:10.37,2013-10-13 12:23:00,
2013-10-13 08:28:00,57.2,55.5,30.13,West,278,0.0,0.0,94,0.00,FEW,,0.00,WeatherDisplay:10.37,2013-10-13 12:28:00,
2013-10-13 08:33:00,57.2,55.5,30.13,West,278,0.0,0.0,94,0.00,FEW,,0.00,WeatherDisplay:10.37,2013-10-13 12:33:00,
2013-10-13 08:38:00,57.3,55.6,30.13,West,277,0.0,0.0,94,0.00,FEW,,0.00,WeatherDisplay:10.37,2013-10-13 12:38:00,
2013-10-13 08:43:00,57.4,56.0,30.13,West,277,0.0,0.0,95,0.00,FEW,,0.00,WeatherDisplay:10.37,2013-10-13 12:43:00,
2013-10-13 08:48:00,57.6,56.2,30.13,West,278,0.0,0.2,95,0.00,FEW,,0.00,WeatherDisplay:10.37,2013-10-13 12:48:00,
2013-10-13 08:53:00,57.7,56.3,30.13,West,277,1.0,0.0,95,0.00,FEW,,0.00,WeatherDisplay:10.37,2013-10-13 12:53:00,
2013-10-13 08:58:00,57.8,56.4,30.14,WNW,289,1.2,0.0,95,0.00,FEW,,0.00,WeatherDisplay:10.37,2013-10-13 12:58:00,
2013-10-13 09:03:00,58.0,56.6,30.14,WNW,289,0.0,0.0,95,0.00,FEW,,0.00,WeatherDisplay:10.37,2013-10-13 13:03:00,
2013-10-13 09:08:00,58.3,56.9,30.14,WNW,289,0.0,0.0,95,0.00,FEW,,0.00,WeatherDisplay:10.37,2013-10-13 13:08:00,
2013-10-13 09:13:00,58.6,57.2,30.14,WNW,289,0.0,0.0,95,0.00,FEW,,0.00,WeatherDisplay:10.37,2013-10-13 13:13:00,
2013-10-13 09:18:00,58.9,57.5,30.14,WNW,289,0.0,0.0,95,0.00,FEW,,0.00,WeatherDisplay:10.37,2013-10-13 13:18:00,
2013-10-13 09:23:00,59.2,57.8,30.15,WNW,289,0.0,0.0,95,0.00,FEW,,0.00,WeatherDisplay:10.37,2013-10-13 13:23:00,
2013-10-13 09:28:00,59.6,58.2,30.15,WNW,289,0.0,0.0,95,0.00,FEW,,0.00,WeatherDisplay:10.37,2013-10-13 13:28:00,
2013-10-13 09:33:00,60.0,58.6,30.15,WNW,289,0.0,0.0,95,0.00,FEW,,0.00,WeatherDisplay:10.37,2013-10-13 13:33:00,
2013-10-13 09:38:00,60.6,59.2,30.15,WNW,289,0.0,0.0,95,0.00,FEW,,0.00,WeatherDisplay:10.37,2013-10-13 13:38:00,
2013-10-13 09:43:00,61.2,59.5,30.15,WNW,289,0.0,0.0,94,0.00,FEW,,0.00,WeatherDisplay:10.37,2013-10-13 13:43:00,
2013-10-13 09:48:00,61.7,60.0,30.15,WNW,289,0.0,0.0,94,0.00,FEW,,0.00,WeatherDisplay:10.37,2013-10-13 13:48:00,
2013-10-13 09:53:00,62.2,60.2,30.15,WNW,289,0.0,0.0,93,0.00,FEW,,0.00,WeatherDisplay:10.37,2013-10-13 13:53:00,
2013-10-13 09:58:00,62.6,60.5,30.15,WNW,289,0.0,0.0,93,0.00,FEW,,0.00,WeatherDisplay:10.37,2013-10-13 13:58:00,
2013-10-13 10:03:00,63.2,60.8,30.15,WNW,289,0.0,0.0,92,0.00,FEW,,0.00,WeatherDisplay:10.37,2013-10-13 14:03:00,
2013-10-13 10:08:00,63.7,61.0,30.15,WNW,289,0.0,0.0,91,0.00,FEW,,0.00,WeatherDisplay:10.37,2013-10-13 14:08:00,
2013-10-13 10:13:00,64.1,61.1,30.15,WNW,289,0.0,0.0,90,0.00,FEW,,0.00,WeatherDisplay:10.37,2013-10-13 14:13:00,
2013-10-13 10:18:00,64.5,61.5,30.15,WNW,289,0.0,0.0,90,0.00,FEW,,0.00,WeatherDisplay:10.37,2013-10-13 14:18:00,
2013-10-13 10:23:00,64.9,61.6,30.15,WNW,289,0.0,0.0,89,0.00,FEW,,0.00,WeatherDisplay:10.37,2013-10-13 14:23:00,
2013-10-13 10:28:00,65.4,62.1,30.16,WNW,290,0.0,0.0,89,0.00,FEW,,0.00,WeatherDisplay:10.37,2013-10-13 14:28:00,
2013-10-13 10:33:00,65.7,62.0,30.16,WNW,290,0.0,0.0,88,0.00,FEW,,0.00,WeatherDisplay:10.37,2013-10-13 14:33:00,
2013-10-13 10:38:00,66.2,61.9,30.16,WNW,290,0.0,0.0,86,0.00,FEW,,0.00,WeatherDisplay:10.37,2013-10-13 14:38:00,
2013-10-13 10:43:00,66.7,62.4,30.16,NNE,21,0.0,0.0,86,0.00,FEW,,0.00,WeatherDisplay:10.37,2013-10-13 14:43:00,
2013-10-13 10:48:00,67.1,61.8,30.16,NNE,21,0.0,0.0,83,0.00,FEW,,0.00,WeatherDisplay:10.37,2013-10-13 14:48:00,
2013-10-13 10:53:00,67.4,62.4,30.16,NNE,21,0.0,0.0,84,0.00,FEW,,0.00,WeatherDisplay:10.37,2013-10-13 14:53:00,
2013-10-13 10:58:00,67.7,62.7,30.16,ESE,116,0.0,0.0,84,0.00,FEW,,0.00,WeatherDisplay:10.37,2013-10-13 14:58:00,
2013-10-13 11:03:00,68.0,62.3,30.16,ESE,117,1.0,1.0,82,0.00,FEW,,0.00,WeatherDisplay:10.37,2013-10-13 15:03:00,
2013-10-13 11:08:00,68.4,63.0,30.16,ESE,117,0.0,0.0,83,0.00,FEW,,0.00,WeatherDisplay:10.37,2013-10-13 15:08:00,
2013-10-13 11:13:00,68.7,62.3,30.16,NNW,329,3.5,3.5,80,0.00,FEW,,0.00,WeatherDisplay:10.37,2013-10-13 15:13:00,
2013-10-13 11:18:00,69.0,62.2,30.16,SW,229,2.3,2.3,79,0.00,FEW,,0.00,WeatherDisplay:10.37,2013-10-13 15:18:00,
2013-10-13 11:23:00,69.3,62.5,30.16,NW,306,1.2,1.2,79,0.00,FEW,,0.00,WeatherDisplay:10.37,2013-10-13 15:23:00,
2013-10-13 11:28:00,69.6,62.8,30.16,NNW,348,1.2,1.2,79,0.00,FEW,,0.00,WeatherDisplay:10.37,2013-10-13 15:28:00,
2013-10-13 11:33:00,69.9,62.0,30.16,NNW,337,1.0,1.0,76,0.00,FEW,,0.00,WeatherDisplay:10.37,2013-10-13 15:33:00,
2013-10-13 11:38:00,70.2,62.3,30.16,NNW,338,0.0,0.0,76,0.00,FEW,,0.00,WeatherDisplay:10.37,2013-10-13 15:38:00,
2013-10-13 11:43:00,70.5,61.8,30.16,NNW,344,0.0,0.0,74,0.00,FEW,,0.00,WeatherDisplay:10.37,2013-10-13 15:43:00,
2013-10-13 11:48:00,70.8,62.9,30.16,NNW,340,2.3,2.3,76,0.00,FEW,,0.00,WeatherDisplay:10.37,2013-10-13 15:48:00,
2013-10-13 11:53:00,71.1,62.0,30.16,NNW,329,2.3,2.4,73,0.00,FEW,,0.00,WeatherDisplay:10.37,2013-10-13 15:53:00,
2013-10-13 11:58:00,71.5,62.4,30.16,North,355,1.2,1.2,73,0.00,FEW,,0.00,WeatherDisplay:10.37,2013-10-13 15:58:00,
2013-10-13 12:03:00,71.7,61.8,30.15,North,355,0.0,0.0,71,0.00,FEW,,0.00,WeatherDisplay:10.37,2013-10-13 16:03:00,
2013-10-13 12:08:00,72.1,62.2,30.15,North,355,1.2,0.0,71,0.00,FEW,,0.00,WeatherDisplay:10.37,2013-10-13 16:08:00,
2013-10-13 12:13:00,72.6,63.1,30.15,WNW,294,1.2,1.2,72,0.00,FEW,,0.00,WeatherDisplay:10.37,2013-10-13 16:13:00,
2013-10-13 12:18:00,72.9,61.7,30.15,NE,40,2.3,2.3,68,0.00,FEW,,0.00,WeatherDisplay:10.37,2013-10-13 16:18:00,
2013-10-13 12:23:00,73.2,62.0,30.15,NNW,329,3.5,3.5,68,0.00,FEW,,0.00,WeatherDisplay:10.37,2013-10-13 16:23:00,
2013-10-13 12:28:00,73.3,62.1,30.15,NE,42,1.2,1.2,68,0.00,FEW,,0.00,WeatherDisplay:10.37,2013-10-13 16:28:00,
2013-10-13 12:33:00,73.5,62.3,30.15,NE,44,1.0,1.0,68,0.00,FEW,,0.00,WeatherDisplay:10.37,2013-10-13 16:33:00,
2013-10-13 12:38:00,73.7,62.1,30.15,NNW,327,2.3,2.3,67,0.00,FEW,,0.00,WeatherDisplay:10.37,2013-10-13 16:38:00,
2013-10-13 12:43:00,73.9,62.7,30.15,NE,44,2.3,2.3,68,0.00,FEW,,0.00,WeatherDisplay:10.37,2013-10-13 16:43:00,
2013-10-13 12:48:00,73.9,62.2,30.14,ENE,61,2.3,2.3,67,0.00,FEW,,0.00,WeatherDisplay:10.37,2013-10-13 16:48:00,
2013-10-13 12:53:00,74.0,62.3,30.14,ENE,59,1.2,0.0,67,0.00,FEW,,0.00,WeatherDisplay:10.37,2013-10-13 16:53:00,
2013-10-13 12:58:00,74.1,61.6,30.14,ENE,59,1.2,1.2,65,0.00,FEW,,0.00,WeatherDisplay:10.37,2013-10-13 16:58:00,
2013-10-13 13:03:00,74.2,62.1,30.14,NW,321,1.2,0.0,66,0.00,FEW,,0.00,WeatherDisplay:10.37,2013-10-13 17:03:00,
2013-10-13 13:08:00,74.4,63.1,30.14,NW,322,1.0,1.0,68,0.00,FEW,,0.00,WeatherDisplay:10.37,2013-10-13 17:08:00,
2013-10-13 13:13:00,74.5,62.8,30.14,North,5,0.0,0.0,67,0.00,FEW,,0.00,WeatherDisplay:10.37,2013-10-13 17:13:00,
2013-10-13 13:18:00,74.7,63.0,30.13,NNE,33,2.3,2.3,67,0.00,FEW,,0.00,WeatherDisplay:10.37,2013-10-13 17:18:00,
2013-10-13 13:23:00,74.8,62.7,30.13,NE,44,2.3,2.3,66,0.00,FEW,,0.00,WeatherDisplay:10.37,2013-10-13 17:23:00,
2013-10-13 13:28:00,74.8,62.2,30.13,NNE,29,1.2,1.2,65,0.00,FEW,,0.00,WeatherDisplay:10.37,2013-10-13 17:28:00,
2013-10-13 13:33:00,75.1,62.5,30.13,West,261,3.5,3.5,65,0.00,FEW,,0.00,WeatherDisplay:10.37,2013-10-13 17:33:00,
2013-10-13 13:38:00,75.5,62.9,30.13,NE,46,3.5,3.5,65,0.00,FEW,,0.00,WeatherDisplay:10.37,2013-10-13 17:38:00,
2013-10-13 13:43:00,75.7,63.1,30.13,NNE,22,2.3,2.3,65,0.00,FEW,,0.00,WeatherDisplay:10.37,2013-10-13 17:43:00,
2013-10-13 13:48:00,75.6,62.6,30.12,ENE,59,3.0,3.0,64,0.00,FEW,,0.00,WeatherDisplay:10.37,2013-10-13 17:48:00,
2013-10-13 13:53:00,75.3,61.8,30.12,ENE,60,1.2,1.2,63,0.00,FEW,,0.00,WeatherDisplay:10.37,2013-10-13 17:53:00,
2013-10-13 13:58:00,75.2,62.6,30.12,South,170,1.2,1.2,65,0.00,FEW,,0.00,WeatherDisplay:10.37,2013-10-13 17:58:00,
2013-10-13 14:03:00,75.1,61.2,30.12,ENE,59,2.3,2.3,62,0.00,FEW,,0.00,WeatherDisplay:10.37,2013-10-13 18:03:00,
2013-10-13 14:08:00,75.2,60.8,30.11,WSW,255,2.3,2.3,61,0.00,FEW,,0.00,WeatherDisplay:10.37,2013-10-13 18:08:00,
2013-10-13 14:13:00,75.5,62.0,30.11,West,267,1.0,1.0,63,0.00,BKN,,0.00,WeatherDisplay:10.37,2013-10-13 18:13:00,
2013-10-13 14:18:00,75.9,63.3,30.11,NNE,22,2.3,2.3,65,0.00,BKN,,0.00,WeatherDisplay:10.37,2013-10-13 18:18:00,
2013-10-13 14:23:00,76.0,62.9,30.11,NNE,15,1.2,0.0,64,0.00,BKN,,0.00,WeatherDisplay:10.37,2013-10-13 18:23:00,
2013-10-13 14:28:00,75.7,61.8,30.11,North,360,0.0,0.1,62,0.00,BKN,,0.00,WeatherDisplay:10.37,2013-10-13 18:28:00,
2013-10-13 14:33:00,75.6,61.7,30.10,NNW,347,0.0,0.0,62,0.00,BKN,,0.00,WeatherDisplay:10.37,2013-10-13 18:33:00,
2013-10-13 14:38:00,75.6,62.1,30.10,West,267,1.2,1.2,63,0.00,BKN,,0.00,WeatherDisplay:10.37,2013-10-13 18:38:00,
2013-10-13 14:43:00,75.7,62.7,30.10,NNW,327,1.0,1.0,64,0.00,BKN,,0.00,WeatherDisplay:10.37,2013-10-13 18:43:00,
2013-10-13 14:48:00,75.9,62.4,30.10,NNE,29,1.0,1.0,63,0.00,BKN,,0.00,WeatherDisplay:10.37,2013-10-13 18:48:00,
2013-10-13 14:53:00,76.1,63.0,30.10,NE,48,2.3,2.3,64,0.00,BKN,,0.00,WeatherDisplay:10.37,2013-10-13 18:53:00,
2013-10-13 14:58:00,76.2,62.2,30.10,NNE,28,1.2,1.2,62,0.00,BKN,,0.00,WeatherDisplay:10.37,2013-10-13 18:58:00,
2013-10-13 15:03:00,76.4,61.5,30.09,NNW,327,1.2,1.2,60,0.00,BKN,,0.00,WeatherDisplay:10.37,2013-10-13 19:03:00,
2013-10-13 15:08:00,76.5,62.0,30.09,WSW,237,0.0,0.0,61,0.00,BKN,,0.00,WeatherDisplay:10.37,2013-10-13 19:08:00,
2013-10-13 15:13:00,76.6,60.7,30.09,North,10,0.0,0.0,58,0.00,BKN,,0.00,WeatherDisplay:10.37,2013-10-13 19:13:00,
2013-10-13 15:18:00,76.6,61.2,30.09,NNW,345,0.0,0.0,59,0.00,BKN,,0.00,WeatherDisplay:10.37,2013-10-13 19:18:00,
2013-10-13 15:23:00,76.9,61.5,30.09,WNW,303,0.0,0.0,59,0.00,BKN,,0.00,WeatherDisplay:10.37,2013-10-13 19:23:00,
2013-10-13 15:28:00,77.1,61.7,30.09,NE,42,2.3,2.3,59,0.00,BKN,,0.00,WeatherDisplay:10.37,2013-10-13 19:28:00,
2013-10-13 15:33:00,77.2,60.3,30.09,ENE,59,1.2,1.2,56,0.00,BKN,,0.00,WeatherDisplay:10.37,2013-10-13 19:33:00,
2013-10-13 15:38:00,77.3,59.9,30.09,NE,34,1.2,1.2,55,0.00,BKN,,0.00,WeatherDisplay:10.37,2013-10-13 19:38:00,
2013-10-13 15:43:00,77.2,61.3,30.09,ENE,64,0.0,0.0,58,0.00,BKN,,0.00,WeatherDisplay:10.37,2013-10-13 19:43:00,
2013-10-13 15:48:00,77.1,61.7,30.08,ENE,66,0.0,0.0,59,0.00,BKN,,0.00,WeatherDisplay:10.37,2013-10-13 19:48:00,
2013-10-13 15:53:00,76.8,62.3,30.08,ENE,66,0.0,0.0,61,0.00,BKN,,0.00,WeatherDisplay:10.37,2013-10-13 19:53:00,
2013-10-13 15:58:00,76.7,63.2,30.08,ENE,66,0.0,0.0,63,0.00,BKN,,0.00,WeatherDisplay:10.37,2013-10-13 19:58:00,
2013-10-13 16:03:00,76.5,62.5,30.08,ENE,66,1.2,1.2,62,0.00,BKN,,0.00,WeatherDisplay:10.37,2013-10-13 20:03:00,
2013-10-13 16:08:00,76.4,62.4,30.08,ENE,66,1.2,1.2,62,0.00,BKN,,0.00,WeatherDisplay:10.37,2013-10-13 20:08:00,
2013-10-13 16:13:00,76.3,61.9,30.08,ENE,66,1.2,0.0,61,0.00,BKN,,0.00,WeatherDisplay:10.37,2013-10-13 20:13:00,
2013-10-13 16:18:00,76.2,60.3,30.08,ENE,66,1.0,1.0,58,0.00,BKN,,0.00,WeatherDisplay:10.37,2013-10-13 20:18:00,
2013-10-13 16:23:00,76.2,61.3,30.08,ENE,66,1.0,1.0,60,0.00,BKN,,0.00,WeatherDisplay:10.37,2013-10-13 20:23:00,
2013-10-13 16:28:00,76.2,60.8,30.08,ENE,66,0.0,0.0,59,0.00,BKN,,0.00,WeatherDisplay:10.37,2013-10-13 20:28:00,
2013-10-13 16:33:00,76.2,61.3,30.08,ENE,66,0.0,0.0,60,0.00,BKN,,0.00,WeatherDisplay:10.37,2013-10-13 20:33:00,
2013-10-13 16:38:00,76.4,62.0,30.08,NE,53,1.0,0.0,61,0.00,BKN,,0.00,WeatherDisplay:10.37,2013-10-13 20:38:00,
2013-10-13 16:43:00,76.3,61.9,30.08,WSW,252,3.0,3.0,61,0.00,BKN,,0.00,WeatherDisplay:10.37,2013-10-13 20:43:00,
2013-10-13 16:48:00,76.2,62.2,30.08,NNW,330,0.0,0.0,62,0.00,BKN,,0.00,WeatherDisplay:10.37,2013-10-13 20:48:00,
2013-10-13 16:53:00,76.2,62.7,30.08,NNW,330,0.0,0.0,63,0.00,BKN,,0.00,WeatherDisplay:10.37,2013-10-13 20:53:00,
2013-10-13 16:58:00,76.1,63.0,30.08,NNW,330,0.0,0.0,64,0.00,BKN,,0.00,WeatherDisplay:10.37,2013-10-13 20:58:00,
2013-10-13 17:03:00,76.1,62.6,30.08,NNW,330,0.0,0.0,63,0.00,BKN,,0.00,WeatherDisplay:10.37,2013-10-13 21:03:00,
2013-10-13 17:08:00,76.0,61.6,30.08,NNW,348,0.0,0.0,61,0.00,BKN,,0.00,WeatherDisplay:10.37,2013-10-13 21:08:00,
2013-10-13 17:13:00,75.9,62.8,30.08,NNW,348,0.0,0.0,64,0.00,BKN,,0.00,WeatherDisplay:10.37,2013-10-13 21:13:00,
2013-10-13 17:18:00,75.9,63.7,30.08,NNW,348,0.0,0.0,66,0.00,BKN,,0.00,WeatherDisplay:10.37,2013-10-13 21:18:00,
2013-10-13 17:23:00,75.9,62.8,30.08,NNW,348,0.0,0.0,64,0.00,BKN,,0.00,WeatherDisplay:10.37,2013-10-13 21:23:00,
2013-10-13 17:28:00,75.9,63.3,30.08,NNW,342,0.0,0.0,65,0.00,BKN,,0.00,WeatherDisplay:10.37,2013-10-13 21:28:00,
2013-10-13 17:33:00,75.9,62.4,30.08,NNW,341,0.0,0.0,63,0.00,BKN,,0.00,WeatherDisplay:10.37,2013-10-13 21:33:00,
2013-10-13 17:38:00,75.9,62.4,30.08,WSW,257,1.2,0.0,63,0.00,BKN,,0.00,WeatherDisplay:10.37,2013-10-13 21:38:00,
2013-10-13 17:43:00,75.9,62.4,30.08,WSW,257,0.0,0.0,63,0.00,BKN,,0.00,WeatherDisplay:10.37,2013-10-13 21:43:00,
2013-10-13 17:48:00,75.9,63.3,30.08,WSW,257,0.0,0.0,65,0.00,BKN,,0.00,WeatherDisplay:10.37,2013-10-13 21:48:00,
2013-10-13 17:53:00,75.8,63.2,30.08,WSW,257,0.0,0.0,65,0.00,BKN,,0.00,WeatherDisplay:10.37,2013-10-13 21:53:00,
2013-10-13 17:58:00,75.7,64.0,30.08,WSW,257,0.0,0.0,67,0.00,BKN,,0.00,WeatherDisplay:10.37,2013-10-13 21:58:00,
2013-10-13 18:03:00,75.6,63.9,30.08,WSW,257,0.0,0.0,67,0.00,BKN,,0.00,WeatherDisplay:10.37,2013-10-13 22:03:00,
2013-10-13 18:08:00,75.4,63.7,30.08,WSW,257,0.0,0.0,67,0.00,BKN,,0.00,WeatherDisplay:10.37,2013-10-13 22:08:00,
2013-10-13 18:13:00,75.3,63.6,30.08,WSW,257,0.0,0.0,67,0.00,BKN,,0.00,WeatherDisplay:10.37,2013-10-13 22:13:00,
2013-10-13 18:18:00,75.2,63.9,30.08,WSW,257,0.0,0.0,68,0.00,BKN,,0.00,WeatherDisplay:10.37,2013-10-13 22:18:00,
2013-10-13 18:23:00,75.1,63.8,30.08,WSW,257,0.0,0.0,68,0.00,BKN,,0.00,WeatherDisplay:10.37,2013-10-13 22:23:00,
2013-10-13 18:28:00,75.0,63.7,30.09,WSW,257,0.0,0.0,68,0.00,BKN,,0.00,WeatherDisplay:10.37,2013-10-13 22:28:00,
2013-10-13 18:33:00,74.8,64.4,30.09,WSW,257,0.0,0.0,70,0.00,BKN,,0.00,WeatherDisplay:10.37,2013-10-13 22:33:00,
2013-10-13 18:38:00,74.6,63.8,30.09,WSW,257,0.0,0.0,69,0.00,BKN,,0.00,WeatherDisplay:10.37,2013-10-13 22:38:00,
2013-10-13 18:43:00,74.3,64.3,30.09,WSW,257,0.0,0.0,71,0.00,BKN,,0.00,WeatherDisplay:10.37,2013-10-13 22:43:00,
2013-10-13 18:48:00,74.0,64.4,30.09,WSW,257,0.0,0.0,72,0.00,BKN,,0.00,WeatherDisplay:10.37,2013-10-13 22:48:00,
2013-10-13 18:53:00,73.8,64.6,30.09,WSW,257,0.0,0.0,73,0.00,BKN,,0.00,WeatherDisplay:10.37,2013-10-13 22:53:00,
2013-10-13 18:58:00,73.7,64.9,30.09,WSW,257,0.0,0.0,74,0.00,BKN,,0.00,WeatherDisplay:10.37,2013-10-13 22:58:00,
2013-10-13 19:03:00,73.5,64.7,30.09,WSW,257,0.0,0.0,74,0.00,BKN,,0.00,WeatherDisplay:10.37,2013-10-13 23:03:00,
2013-10-13 19:08:00,73.3,64.9,30.09,WSW,257,0.0,0.0,75,0.00,BKN,,0.00,WeatherDisplay:10.37,2013-10-13 23:08:00,
2013-10-13 19:13:00,73.0,65.0,30.09,WSW,257,0.0,0.0,76,0.00,BKN,,0.00,WeatherDisplay:10.37,2013-10-13 23:13:00,
2013-10-13 19:18:00,72.7,65.1,30.09,WSW,257,0.0,0.0,77,0.00,BKN,,0.00,WeatherDisplay:10.37,2013-10-13 23:18:00,
2013-10-13 19:23:00,72.5,64.9,30.09,WSW,257,0.0,0.0,77,0.00,BKN,,0.00,WeatherDisplay:10.37,2013-10-13 23:23:00,
2013-10-13 19:28:00,72.3,65.1,30.10,WSW,257,0.0,0.0,78,0.00,BKN,,0.00,WeatherDisplay:10.37,2013-10-13 23:28:00,
2013-10-13 19:33:00,72.1,64.9,30.10,WSW,257,0.0,0.0,78,0.00,BKN,,0.00,WeatherDisplay:10.37,2013-10-13 23:33:00,
2013-10-13 19:38:00,71.9,65.0,30.10,WSW,257,0.0,0.0,79,0.00,BKN,,0.00,WeatherDisplay:10.37,2013-10-13 23:38:00,
2013-10-13 19:43:00,71.7,65.2,30.10,WSW,257,0.0,0.0,80,0.00,BKN,,0.00,WeatherDisplay:10.37,2013-10-13 23:43:00,
2013-10-13 19:48:00,71.5,65.0,30.10,WSW,257,0.0,0.0,80,0.00,BKN,,0.00,WeatherDisplay:10.37,2013-10-13 23:48:00,
2013-10-13 19:53:00,71.2,65.1,30.10,WSW,257,0.0,0.0,81,0.00,BKN,,0.00,WeatherDisplay:10.37,2013-10-13 23:53:00,
2013-10-13 19:58:00,71.0,65.2,30.10,WSW,257,0.0,0.0,82,0.00,BKN,,0.00,WeatherDisplay:10.37,2013-10-13 23:58:00,
2013-10-13 20:03:00,70.9,64.8,30.11,WSW,257,0.0,0.0,81,0.00,BKN,,0.00,WeatherDisplay:10.37,2013-10-14 00:03:00,
2013-10-13 20:08:00,70.6,64.8,30.11,WSW,257,0.0,0.0,82,0.00,BKN,,0.00,WeatherDisplay:10.37,2013-10-14 00:08:00,
2013-10-13 20:13:00,70.4,64.6,30.11,WSW,257,0.0,0.0,82,0.00,BKN,,0.00,WeatherDisplay:10.37,2013-10-14 00:13:00,
2013-10-13 20:18:00,70.2,64.4,30.11,WSW,257,0.0,0.0,82,0.00,BKN,,0.00,WeatherDisplay:10.37,2013-10-14 00:18:00,
2013-10-13 20:23:00,70.0,64.6,30.11,WSW,257,0.0,0.0,83,0.00,BKN,,0.00,WeatherDisplay:10.37,2013-10-14 00:23:00,
2013-10-13 20:28:00,69.7,64.3,30.12,WSW,257,0.0,0.0,83,0.00,BKN,,0.00,WeatherDisplay:10.37,2013-10-14 00:28:00,
2013-10-13 20:33:00,69.4,64.4,30.11,WSW,257,0.0,0.0,84,0.00,BKN,,0.00,WeatherDisplay:10.37,2013-10-14 00:33:00,
2013-10-13 20:38:00,69.2,64.2,30.12,WSW,257,0.0,0.0,84,0.00,BKN,,0.00,WeatherDisplay:10.37,2013-10-14 00:38:00,
2013-10-13 20:43:00,69.1,64.1,30.12,WSW,257,0.0,0.0,84,0.00,BKN,,0.00,WeatherDisplay:10.37,2013-10-14 00:43:00,
2013-10-13 20:48:00,68.9,63.9,30.12,WSW,257,0.0,0.0,84,0.00,BKN,,0.00,WeatherDisplay:10.37,2013-10-14 00:48:00,
2013-10-13 20:53:00,68.7,63.7,30.12,WSW,257,0.0,0.0,84,0.00,BKN,,0.00,WeatherDisplay:10.37,2013-10-14 00:53:00,
2013-10-13 20:58:00,68.6,63.9,30.12,WSW,257,0.0,0.0,85,0.00,BKN,,0.00,WeatherDisplay:10.37,2013-10-14 00:58:00,
2013-10-13 21:03:00,68.4,63.7,30.12,WSW,257,0.0,0.0,85,0.00,BKN,,0.00,WeatherDisplay:10.37,2013-10-14 01:03:00,
2013-10-13 21:08:00,68.2,63.5,30.12,WSW,257,0.0,0.0,85,0.00,BKN,,0.00,WeatherDisplay:10.37,2013-10-14 01:08:00,
2013-10-13 21:13:00,68.0,63.3,30.12,WSW,257,0.0,0.0,85,0.00,BKN,,0.00,WeatherDisplay:10.37,2013-10-14 01:13:00,
2013-10-13 21:18:00,67.8,63.1,30.12,WSW,257,0.0,0.0,85,0.00,BKN,,0.00,WeatherDisplay:10.37,2013-10-14 01:18:00,
2013-10-13 21:23:00,67.7,63.0,30.13,WSW,257,0.0,0.0,85,0.00,BKN,,0.00,WeatherDisplay:10.37,2013-10-14 01:23:00,
2013-10-13 21:28:00,67.5,62.8,30.13,WSW,257,0.0,0.0,85,0.00,BKN,,0.00,WeatherDisplay:10.37,2013-10-14 01:28:00,
2013-10-13 21:33:00,67.4,63.1,30.13,WSW,257,0.0,0.0,86,0.00,BKN,,0.00,WeatherDisplay:10.37,2013-10-14 01:33:00,
2013-10-13 21:38:00,67.2,62.9,30.13,WSW,257,0.0,0.0,86,0.00,BKN,,0.00,WeatherDisplay:10.37,2013-10-14 01:38:00,
2013-10-13 21:43:00,67.0,62.7,30.13,WSW,257,0.0,0.0,86,0.00,BKN,,0.00,WeatherDisplay:10.37,2013-10-14 01:43:00,
2013-10-13 21:48:00,66.8,62.8,30.13,WSW,257,0.0,0.0,87,0.00,BKN,,0.00,WeatherDisplay:10.37,2013-10-14 01:48:00,
2013-10-13 21:53:00,66.6,62.6,30.14,WSW,257,0.0,0.0,87,0.00,BKN,,0.00,WeatherDisplay:10.37,2013-10-14 01:53:00,
2013-10-13 21:58:00,66.5,62.5,30.14,WSW,257,0.0,0.0,87,0.00,BKN,,0.00,WeatherDisplay:10.37,2013-10-14 01:58:00,
2013-10-13 22:03:00,66.4,62.4,30.14,WSW,257,0.0,0.0,87,0.00,BKN,,0.00,WeatherDisplay:10.37,2013-10-14 02:03:00,
2013-10-13 22:08:00,66.2,62.2,30.14,WSW,257,0.0,0.0,87,0.00,BKN,,0.00,WeatherDisplay:10.37,2013-10-14 02:08:00,
2013-10-13 22:13:00,66.1,62.4,30.14,WSW,257,0.0,0.0,88,0.00,SCT,,0.00,WeatherDisplay:10.37,2013-10-14 02:13:00,
2013-10-13 22:18:00,65.9,62.2,30.14,WSW,257,0.0,0.0,88,0.00,SCT,,0.00,WeatherDisplay:10.37,2013-10-14 02:18:00,
2013-10-13 22:23:00,65.8,62.1,30.14,WSW,257,0.0,0.0,88,0.00,SCT,,0.00,WeatherDisplay:10.37,2013-10-14 02:23:00,
2013-10-13 22:28:00,65.7,62.0,30.14,WSW,257,0.0,0.0,88,0.00,SCT,,0.00,WeatherDisplay:10.37,2013-10-14 02:28:00,
2013-10-13 22:33:00,65.6,61.9,30.14,WSW,257,0.0,0.0,88,0.00,SCT,,0.00,WeatherDisplay:10.37,2013-10-14 02:33:00,
2013-10-13 22:38:00,65.4,62.1,30.14,WSW,257,0.0,0.0,89,0.00,SCT,,0.00,WeatherDisplay:10.37,2013-10-14 02:38:00,
2013-10-13 22:43:00,65.3,61.7,30.14,WSW,257,0.0,0.0,88,0.00,SCT,,0.00,WeatherDisplay:10.37,2013-10-14 02:43:00,
2013-10-13 22:48:00,65.2,61.9,30.14,WSW,257,0.0,0.0,89,0.00,SCT,,0.00,WeatherDisplay:10.37,2013-10-14 02:48:00,
2013-10-13 22:53:00,65.0,61.7,30.14,WSW,257,0.0,0.0,89,0.00,SCT,,0.00,WeatherDisplay:10.37,2013-10-14 02:53:00,
2013-10-13 22:58:00,64.9,61.6,30.14,WSW,257,0.0,0.0,89,0.00,SCT,,0.00,WeatherDisplay:10.37,2013-10-14 02:58:00,
2013-10-13 23:03:00,64.8,61.5,30.14,WSW,257,0.0,0.0,89,0.00,SCT,,0.00,WeatherDisplay:10.37,2013-10-14 03:03:00,
2013-10-13 23:08:00,64.7,61.4,30.14,WSW,257,0.0,0.0,89,0.00,SCT,,0.00,WeatherDisplay:10.37,2013-10-14 03:08:00,
2013-10-13 23:13:00,64.6,61.6,30.14,WSW,257,0.0,0.0,90,0.00,SCT,,0.00,WeatherDisplay:10.37,2013-10-14 03:13:00,
2013-10-13 23:18:00,64.5,61.2,30.14,WSW,257,0.0,0.0,89,0.00,SCT,,0.00,WeatherDisplay:10.37,2013-10-14 03:18:00,
2013-10-13 23:23:00,64.5,61.5,30.14,WSW,257,0.0,0.0,90,0.00,SCT,,0.00,WeatherDisplay:10.37,2013-10-14 03:23:00,
2013-10-13 23:28:00,64.4,61.4,30.14,WSW,257,0.0,0.0,90,0.00,SCT,,0.00,WeatherDisplay:10.37,2013-10-14 03:28:00,
2013-10-13 23:33:00,64.3,61.3,30.14,WSW,257,0.0,0.0,90,0.00,SCT,,0.00,WeatherDisplay:10.37,2013-10-14 03:33:00,
2013-10-13 23:38:00,64.3,61.3,30.14,WSW,257,0.0,0.0,90,0.00,SCT,,0.00,WeatherDisplay:10.37,2013-10-14 03:38:00,
2013-10-13 23:43:00,64.3,61.3,30.14,WSW,257,0.0,0.0,90,0.00,SCT,,0.00,WeatherDisplay:10.37,2013-10-14 03:43:00,
2013-10-13 23:48:00,64.3,61.3,30.14,WSW,257,0.0,0.0,90,0.00,SCT,,0.00,WeatherDisplay:10.37,2013-10-14 03:48:00,
2013-10-13 23:53:00,64.2,61.2,30.14,WSW,257,0.0,0.0,90,0.00,SCT,,0.00,WeatherDisplay:10.37,2013-10-14 03:53:00,
2013-10-13 23:58:00,64.1,61.4,30.14,WSW,257,0.0,0.0,91,0.00,SCT,,0.00,WeatherDisplay:10.37,2013-10-14 03:58:00,